1537675200.04,54013,15.06,73734.8,-4.03,-5.89,-5.77,0,*55
1537675201.3,54014,15.06,73732.0,-4.03,-5.89,-5.85,0,*5F
1537675202.55,54015,15.06,73732.8,-4.01,-5.97,-5.85,0,*53
1537675203.81,54016,15.06,73732.8,-4.01,-5.97,-5.85,0,*50
1537675205.09,54017,15.06,73734.5,-4.01,-5.85,-5.77,0,*5F
1537675206.37,54018,15.06,73730.5,-4.01,-5.89,-5.77,0,*5C
1537675207.62,54019,15.06,73730.8,-4.03,-5.89,-5.85,0,*52
1537675208.91,54020,15.06,73732.8,-4.01,-5.85,-5.85,0,*56
1537675210.16,54021,15.06,73734.0,-4.03,-5.85,-5.77,0,*58
1537675211.42,54022,15.06,73730.5,-4.03,-5.77,-5.85,0,*5B
1537675212.7,54023,15.06,73732.3,-4.01,-5.77,-5.77,0,*55
1537675213.96,54024,15.06,73734.5,-4.05,-5.77,-5.89,0,*57
1537675215.24,54025,15.06,73730.5,-4.01,-5.77,-5.85,0,*5E
1537675216.49,54026,15.06,73734.0,-4.01,-5.85,-5.97,0,*53
1537675217.72,54027,15.06,73734.8,-4.03,-5.85,-6.01,0,*5C
1537675218.94,54028,15.06,73734.5,-4.03,-5.89,-6.01,0,*5F
1537675220.19,54029,15.06,73732.3,-4.01,-5.89,-6.09,0,*54
1537675221.42,54030,15.06,73732.5,-4.01,-5.97,-6.09,0,*53
1537675222.65,54031,15.06,73734.3,-4.01,-5.97,-6.13,0,*59
1537675223.9,54032,15.06,73734.3,-4.01,-6.01,-6.27,0,*51
1537675225.1,54033,15.06,73732.5,-4.03,-6.13,-6.35,0,*52
1537675226.33,54034,15.06,73732.5,-4.03,-6.23,-6.35,0,*56
1537675227.54,54035,15.06,73732.5,-4.05,-6.13,-6.35,0,*52
1537675228.75,54036,15.06,73732.3,-4.03,-6.27,-6.39,0,*5C
1537675230.0,54037,15.06,73732.3,-4.03,-6.23,-6.23,0,*52
1537675231.22,54038,15.06,73730.8,-4.03,-6.23,-6.13,0,*5E
1537675232.42,54039,15.06,73732.5,-4.03,-6.09,-6.09,0,*5C
1537675233.62,54040,15.06,73730.8,-4.03,-6.13,-6.09,0,*59
1537675234.82,54041,15.06,73728.8,-4.03,-6.13,-6.01,0,*50
1537675236.02,54042,15.06,73734.3,-4.03,-6.13,-6.01,0,*53
1537675237.22,54043,15.06,73734.5,-4.03,-6.13,-6.01,0,*52
1537675238.42,54044,15.06,73734.5,-4.03,-6.09,-5.97,0,*52
1537675239.64,54045,15.06,73732.0,-4.03,-6.27,-6.01,0,*53
1537675240.89,54046,15.06,73734.8,-4.01,-6.23,-5.97,0,*5A
1537675242.13,54047,15.06,73734.3,-4.01,-6.27,-5.97,0,*5F
1537675243.41,54048,15.06,73736.8,-4.01,-6.27,-5.89,0,*5F
1537675244.69,54049,15.06,73736.3,-4.01,-6.27,-5.85,0,*52
1537675245.96,54050,15.06,73736.0,-4.01,-6.27,-5.77,0,*57
1537675247.23,54051,15.06,73736.5,-4.01,-6.23,-5.77,0,*52
1537675248.49,54052,15.06,73734.0,-4.01,-6.09,-5.61,0,*5E
1537675249.75,54053,15.06,73736.8,-4.01,-6.09,-5.61,0,*5F
1537675251.01,54054,15.06,73736.0,-4.01,-6.09,-5.61,0,*58
1537675252.27,54055,15.06,73738.5,-4.01,-6.01,-5.69,0,*59
1537675253.53,54056,15.06,73732.3,-4.01,-6.09,-5.61,0,*5A
1537675254.79,54057,15.06,73734.5,-4.01,-6.01,-5.61,0,*53
1537675256.05,54058,15.06,73734.5,-4.01,-5.97,-5.61,0,*50
1537675257.33,54059,15.06,73736.8,-4.01,-5.89,-5.61,0,*5E
1537675258.61,54060,15.06,73736.8,-4.01,-5.89,-5.61,0,*54
1537675259.9,54061,15.06,73738.5,-4.01,-5.89,-5.61,0,*55
1537675261.18,54062,15.06,73736.8,-4.01,-5.85,-5.61,0,*5A
1537675262.44,54063,15.06,73732.3,-4.01,-5.69,-5.47,0,*5D
1537675263.69,54064,15.06,73734.5,-4.01,-5.61,-5.55,0,*51
1537675264.94,54065,15.06,73728.5,-4.01,-5.61,-5.47,0,*53
1537675266.2,54066,15.06,73732.3,-4.01,-5.69,-5.55,0,*5B
1537675267.46,54067,15.06,73730.8,-4.01,-5.61,-5.55,0,*52
1537675268.69,54068,15.06,73734.5,-3.99,-5.65,-5.51,0,*5B
1537675269.95,54069,15.06,73730.5,-4.01,-5.61,-5.55,0,*5C
1537675271.19,54070,15.06,73734.8,-4.03,-5.69,-5.55,0,*5E
1537675272.4,54071,15.06,73730.3,-3.99,-5.55,-5.55,0,*54
1537675273.68,54072,15.06,73726.8,-4.01,-5.61,-5.61,0,*51
1537675274.96,54073,15.06,73732.0,-4.01,-5.61,-5.69,0,*58
1537675276.24,54074,15.06,73730.0,-4.01,-5.61,-5.61,0,*57
1537675277.47,54075,15.06,73730.8,-4.01,-5.55,-5.47,0,*55
1537675278.7,54076,15.06,73730.3,-4.01,-5.47,-5.47,0,*55
1537675279.93,54077,15.06,73734.0,-4.01,-5.47,-5.43,0,*50
1537675281.15,54078,15.06,73736.8,-4.01,-5.43,-5.43,0,*5B
1537675282.37,54079,15.06,73736.8,-4.01,-5.43,-5.43,0,*5A
1537675283.6,54080,15.06,73738.0,-4.01,-5.43,-5.35,0,*5D
1537675284.82,54081,15.06,73736.3,-4.01,-5.43,-5.43,0,*5D
1537675286.04,54082,15.06,73736.5,-4.01,-5.43,-5.43,0,*5E
1537675287.27,54083,15.06,73736.8,-3.99,-5.31,-5.39,0,*51
1537675288.48,54084,15.06,73738.8,-3.99,-5.39,-5.39,0,*5E
1537675289.68,54085,15.06,73738.5,-3.99,-5.39,-5.39,0,*5F
1537675290.9,54086,15.06,73738.0,-4.01,-5.43,-5.43,0,*5A
1537675292.12,54087,15.06,73736.0,-4.01,-5.43,-5.35,0,*5A
1537675293.39,54088,15.06,73738.3,-3.99,-5.31,-5.27,0,*55
1537675294.64,54089,15.06,73736.5,-4.01,-5.35,-5.31,0,*51
1537675295.84,54090,15.06,73734.5,-3.99,-5.43,-5.39,0,*56
1537675297.06,54091,15.06,73738.8,-4.01,-5.43,-5.43,0,*5C
1537675298.29,54092,15.06,73736.5,-4.01,-5.43,-5.35,0,*5E
1537675299.52,54093,15.06,73740.0,-3.99,-5.39,-5.27,0,*57
1537675300.75,54094,15.06,73738.5,-3.99,-5.31,-5.39,0,*57
1537675301.98,54095,15.06,73738.5,-4.01,-5.47,-5.47,0,*58
1537675303.19,54096,15.06,73738.0,-3.99,-5.51,-5.43,0,*5E
1537675304.42,54097,15.06,73736.3,-3.99,-5.39,-5.31,0,*54
1537675305.65,54098,15.06,73736.3,-4.01,-5.35,-5.35,0,*55
1537675306.9,54099,15.06,73738.0,-3.99,-5.27,-5.19,0,*5F
1537675308.16,54100,15.06,73736.5,-3.99,-5.31,-5.19,0,*59
1537675309.42,54101,15.06,73736.8,-3.99,-5.27,-5.27,0,*52
1537675310.68,54102,15.06,73738.3,-3.99,-5.27,-5.19,0,*5C
1537675311.91,54103,15.06,73732.3,-3.99,-5.39,-5.31,0,*58
1537675313.15,54104,15.06,73738.3,-3.99,-5.39,-5.31,0,*5F
1537675314.43,54105,15.06,73736.5,-4.01,-5.23,-5.31,0,*53
1537675315.69,54106,15.06,73734.0,-3.99,-5.27,-5.19,0,*58
1537675316.95,54107,15.06,73732.5,-3.99,-5.27,-5.19,0,*59
1537675318.21,54108,15.06,73732.5,-3.99,-5.27,-5.27,0,*5B
1537675319.49,54109,15.06,73732.3,-4.01,-5.23,-5.19,0,*55
1537675320.78,54110,15.06,73736.5,-3.97,-5.27,-5.27,0,*5C
1537675322.06,54111,15.06,73732.5,-3.97,-5.31,-5.31,0,*5D
1537675323.29,54112,15.06,73732.5,-3.97,-5.39,-5.39,0,*5E
1537675324.5,54113,15.06,73732.0,-3.99,-5.51,-5.43,0,*52
1537675325.71,54114,15.06,73734.8,-3.99,-5.39,-5.51,0,*58
1537675326.91,54115,15.06,73732.8,-3.99,-5.43,-5.43,0,*57
1537675328.17,54116,15.06,73736.3,-3.99,-5.31,-5.31,0,*54
1537675329.42,54117,15.06,73738.0,-4.01,-5.31,-5.39,0,*5B
1537675330.68,54118,15.06,73740.8,-3.99,-5.31,-5.31,0,*5A
1537675331.88,54119,15.06,73738.0,-3.99,-5.39,-5.43,0,*56
1537675333.11,54120,15.06,73740.3,-3.99,-5.31,-5.43,0,*54
1537675334.32,54121,15.06,73736.0,-3.99,-5.39,-5.51,0,*5E
1537675335.53,54122,15.06,73736.8,-3.99,-5.39,-5.55,0,*59
1537675336.76,54123,15.06,73738.3,-3.99,-5.51,-5.73,0,*52
1537675338.02,54124,15.06,73738.0,-3.97,-5.51,-5.81,0,*56
1537675339.27,54125,15.06,73736.0,-3.97,-5.73,-6.09,0,*54
1537675340.49,54126,15.06,73730.8,-3.99,-5.73,-6.05,0,*55
1537675341.76,54127,15.06,73726.0,-4.01,-5.77,-6.23,0,*52
1537675342.99,54128,15.06,73722.3,-3.99,-5.81,-6.31,0,*51
1537675344.23,54129,15.06,73720.0,-3.99,-5.93,-6.35,0,*57
1537675345.46,54130,15.06,73720.3,-3.99,-5.81,-6.43,0,*5D
1537675346.7,54131,15.06,73724.5,-3.99,-5.85,-6.59,0,*53
1537675347.93,54132,15.06,73726.8,-3.99,-5.93,-6.73,0,*5F
1537675349.16,54133,15.06,73730.3,-4.01,-6.09,-6.89,0,*5D
1537675350.41,54134,15.06,73726.0,-4.01,-6.09,-7.01,0,*5B
1537675351.64,54135,15.06,73722.8,-3.99,-6.23,-7.23,0,*54
1537675352.92,54136,15.06,73722.0,-4.01,-6.27,-7.27,0,*51
1537675354.2,54137,15.06,73722.5,-4.01,-6.23,-7.27,0,*54
1537675355.47,54138,15.06,73720.0,-4.01,-6.27,-7.27,0,*5F
1537675356.72,54139,15.06,73722.3,-4.01,-6.39,-7.27,0,*51
1537675357.95,54140,15.06,73722.0,-4.01,-6.39,-7.49,0,*57
1537675359.18,54141,15.06,73726.3,-3.99,-6.47,-7.43,0,*53
1537675360.43,54142,15.06,73722.0,-4.01,-6.55,-7.69,0,*5D
1537675361.65,54143,15.06,73720.5,-3.99,-6.73,-7.69,0,*5E
1537675362.89,54144,15.06,73720.5,-4.01,-6.81,-7.83,0,*56
1537675364.17,54145,15.06,73714.8,-4.01,-7.01,-7.91,0,*5D
1537675365.42,54146,15.06,73702.3,-4.01,-7.15,-7.99,0,*53
1537675366.67,54147,15.06,73704.0,-3.99,-7.01,-7.91,0,*59
1537675367.94,54148,15.06,73708.8,-4.01,-7.05,-7.95,0,*50
1537675369.19,54149,15.06,73708.5,-4.01,-7.15,-7.95,0,*50
1537675370.44,54150,15.06,73702.5,-4.01,-7.15,-7.95,0,*58
1537675371.68,54151,15.06,73700.8,-4.01,-7.19,-7.87,0,*56
1537675372.91,54152,15.06,73718.0,-4.01,-7.19,-7.83,0,*51
1537675374.15,54153,15.06,73720.0,-4.01,-7.19,-7.83,0,*50
1537675375.42,54154,15.06,73726.3,-4.01,-7.27,-7.95,0,*5D
1537675376.69,54155,15.06,73720.0,-4.01,-7.39,-7.95,0,*53
1537675377.96,54156,15.06,73716.0,-4.01,-7.43,-7.95,0,*5D
1537675379.24,54157,15.06,73714.3,-4.01,-7.61,-7.95,0,*5C
1537675380.5,54158,15.06,73726.5,-4.01,-7.57,-7.87,0,*55
1537675381.75,54159,15.06,73724.3,-4.01,-7.61,-7.83,0,*55
1537675383.04,54160,15.06,73724.0,-4.01,-7.61,-7.73,0,*50
1537675384.29,54161,15.06,73728.8,-4.01,-7.69,-7.83,0,*56
1537675385.54,54162,15.06,73728.0,-3.99,-7.69,-7.69,0,*57
1537675386.82,54163,15.06,73722.0,-4.01,-7.73,-7.69,0,*5B
1537675388.07,54164,15.06,73726.8,-4.01,-7.83,-7.69,0,*53
1537675389.33,54165,15.06,73728.5,-3.99,-7.77,-7.43,0,*57
1537675390.56,54166,15.06,73730.5,-3.99,-7.83,-7.43,0,*5F
1537675391.84,54167,15.06,73728.0,-4.01,-7.95,-7.27,0,*5D
1537675393.04,54168,15.06,73728.8,-3.99,-7.83,-7.15,0,*52
1537675394.29,54169,15.06,73732.3,-3.99,-7.69,-7.01,0,*52
1537675395.57,54170,15.06,73728.0,-4.01,-7.73,-7.01,0,*57
1537675396.86,54171,15.06,73730.3,-4.01,-7.73,-7.01,0,*56
1537675398.08,54172,15.06,73728.5,-3.99,-7.69,-6.89,0,*59
1537675399.35,54173,15.06,73722.0,-4.01,-7.69,-7.01,0,*5F
1537675400.62,54174,15.06,73734.5,-4.01,-7.69,-7.05,0,*5C
1537675401.9,54175,15.06,73734.8,-4.01,-7.69,-6.93,0,*53
1537675403.18,54176,15.06,73722.3,-4.01,-7.57,-6.93,0,*5D
1537675404.46,54177,15.06,73720.8,-4.01,-7.57,-6.93,0,*5C
1537675405.72,54178,15.06,73730.3,-4.01,-7.57,-6.81,0,*50
1537675406.95,54179,15.06,73726.0,-4.01,-7.49,-6.77,0,*57
1537675408.19,54180,15.06,73726.0,-4.01,-7.39,-6.69,0,*59
1537675409.42,54181,15.06,73722.3,-4.01,-7.19,-6.55,0,*55
1537675410.68,54182,15.06,73722.0,-4.01,-7.19,-6.63,0,*53
1537675411.91,54183,15.06,73720.3,-4.01,-7.19,-6.55,0,*57
1537675413.15,54184,15.06,73722.8,-4.01,-7.19,-6.51,0,*54
1537675414.37,54185,15.06,73722.0,-4.03,-7.05,-6.55,0,*5E
1537675415.58,54186,15.06,73724.5,-4.03,-7.19,-6.55,0,*50
1537675416.81,54187,15.06,73726.8,-4.01,-7.15,-6.51,0,*5B
1537675418.04,54188,15.06,73726.5,-4.01,-7.15,-6.51,0,*54
1537675419.29,54189,15.06,73724.5,-4.01,-7.05,-6.47,0,*53
1537675420.55,54190,15.06,73716.0,-4.01,-7.01,-6.51,0,*58
1537675421.78,54191,15.06,73714.5,-4.03,-6.93,-6.51,0,*51
1537675423.01,54192,15.06,73712.5,-4.03,-7.01,-6.51,0,*58
1537675424.24,54193,15.06,73708.5,-4.03,-6.93,-6.51,0,*53
1537675425.47,54194,15.06,73714.0,-4.05,-6.97,-6.55,0,*52
1537675426.71,54195,15.06,73710.8,-4.05,-6.97,-6.59,0,*5F
1537675427.91,54196,15.06,73708.5,-4.03,-6.89,-6.47,0,*5A
1537675429.11,54197,15.06,73710.3,-4.03,-6.89,-6.47,0,*5B
1537675430.31,54198,15.06,73712.8,-4.03,-6.69,-6.51,0,*5D
1537675431.51,54199,15.06,73716.5,-4.05,-6.73,-6.51,0,*51
1537675432.72,54200,15.06,73716.8,-4.05,-6.69,-6.51,0,*59
1537675433.93,54201,15.06,73718.0,-4.05,-6.59,-6.43,0,*58
1537675435.13,54202,15.06,73718.5,-4.05,-6.59,-6.43,0,*5B
1537675436.36,54203,15.06,73712.5,-4.03,-6.63,-6.51,0,*56
1537675437.56,54204,15.06,73718.5,-4.05,-6.69,-6.51,0,*5D
1537675438.77,54205,15.06,73712.3,-4.05,-6.81,-6.59,0,*52
1537675440.01,54206,15.06,73712.0,-4.05,-6.97,-6.81,0,*53
1537675441.23,54207,15.06,73716.5,-4.03,-7.01,-6.77,0,*53
1537675442.47,54208,15.06,73714.3,-4.05,-7.19,-6.93,0,*59
1537675443.72,54209,15.06,73718.8,-4.05,-7.31,-6.93,0,*52
1537675444.95,54210,15.06,73716.8,-4.05,-7.43,-6.85,0,*58
1537675446.18,54211,15.06,73718.0,-4.09,-7.57,-6.89,0,*5C
1537675447.41,54212,15.06,73716.0,-4.09,-7.57,-6.85,0,*53
1537675448.62,54213,15.06,73722.5,-4.05,-7.53,-6.81,0,*5E
1537675449.85,54214,15.06,73720.5,-4.05,-7.65,-6.73,0,*51
1537675451.07,54215,15.06,73718.0,-4.09,-7.65,-6.85,0,*55
1537675452.3,54216,15.06,73718.0,-4.05,-7.61,-6.73,0,*57
1537675453.53,54217,15.06,73718.3,-4.05,-7.65,-6.73,0,*52
1537675454.75,54218,15.06,73714.3,-4.09,-7.77,-6.77,0,*56
1537675455.95,54219,15.06,73714.5,-4.09,-7.83,-6.73,0,*58
1537675457.23,54220,15.06,73716.3,-4.11,-7.77,-6.63,0,*51
1537675458.43,54221,15.06,73712.8,-4.09,-7.83,-6.59,0,*5B
1537675459.68,54222,15.06,73714.5,-4.09,-7.77,-6.63,0,*5A
1537675460.88,54223,15.06,73714.0,-4.09,-7.83,-6.59,0,*59
1537675462.1,54224,15.06,73718.0,-4.09,-7.77,-6.55,0,*59
1537675463.35,54225,15.06,73718.5,-4.11,-7.77,-6.43,0,*56
1537675464.61,54226,15.06,73720.0,-4.11,-7.65,-6.31,0,*53
1537675465.86,54227,15.06,73718.3,-4.09,-7.57,-6.19,0,*50
1537675467.08,54228,15.06,73714.5,-4.09,-7.39,-6.05,0,*5A
1537675468.3,54229,15.06,73716.8,-4.09,-7.39,-5.97,0,*53
1537675469.55,54230,15.06,73714.8,-4.09,-7.35,-5.93,0,*53
1537675470.77,54231,15.06,73718.8,-4.09,-7.27,-6.05,0,*5D
1537675471.98,54232,15.06,73718.0,-4.09,-7.27,-6.09,0,*52
1537675473.18,54233,15.06,73714.0,-4.09,-7.15,-5.97,0,*56
1537675474.4,54234,15.06,73714.8,-4.09,-6.97,-5.97,0,*5A
1537675475.63,54235,15.06,73712.5,-4.09,-6.97,-6.05,0,*53
1537675476.88,54236,15.06,73714.0,-4.11,-6.97,-6.05,0,*59
1537675478.1,54237,15.06,73712.5,-4.11,-6.77,-5.97,0,*5E
1537675479.35,54238,15.06,73714.3,-4.09,-6.63,-5.93,0,*59
1537675480.58,54239,15.06,73718.3,-4.09,-6.59,-5.93,0,*51
1537675481.81,54240,15.06,73716.8,-4.09,-6.55,-5.85,0,*54
1537675483.03,54241,15.06,73718.8,-4.09,-6.43,-5.85,0,*52
1537675484.26,54242,15.06,73720.5,-4.09,-6.43,-5.81,0,*55
1537675485.52,54243,15.06,73716.3,-4.11,-6.31,-5.85,0,*5C
1537675486.77,54244,15.06,73716.5,-4.09,-6.19,-5.69,0,*5A
1537675488.02,54245,15.06,73720.3,-4.11,-6.05,-5.69,0,*5F
1537675489.24,54246,15.06,73722.3,-4.09,-6.05,-5.69,0,*55
1537675490.47,54247,15.06,73726.0,-4.09,-5.97,-5.69,0,*5C
1537675491.69,54248,15.06,73722.3,-4.09,-5.97,-5.65,0,*5F
1537675492.95,54249,15.06,73720.0,-4.09,-5.85,-5.65,0,*5D
1537675494.2,54250,15.06,73720.0,-4.05,-5.89,-5.73,0,*52
1537675495.46,54251,15.06,73718.5,-4.05,-5.89,-5.73,0,*53
1537675496.71,54252,15.06,73720.0,-4.09,-5.93,-5.77,0,*53
1537675497.96,54253,15.06,73720.3,-4.09,-5.85,-5.77,0,*55
1537675499.23,54254,15.06,73716.0,-4.11,-5.81,-5.77,0,*5F
1537675500.48,54255,15.06,73716.3,-4.09,-5.85,-5.77,0,*53
1537675501.74,54256,15.06,73716.5,-4.09,-5.81,-5.81,0,*5D
1537675502.99,54257,15.06,73716.5,-4.09,-5.85,-5.77,0,*51
1537675504.24,54258,15.06,73718.5,-4.09,-5.85,-5.81,0,*57
1537675505.5,54259,15.06,73722.8,-4.09,-5.85,-5.85,0,*52
1537675506.78,54260,15.06,73720.5,-4.11,-5.85,-5.81,0,*55
1537675508.04,54261,15.0,73718.5,-4.09,-5.85,-5.81,0,*5D
1537675509.3,54262,15.06,73718.5,-4.09,-5.93,-5.85,0,*5D
1537675510.55,54263,15.06,73722.8,-4.05,-5.81,-5.77,0,*5E
1537675511.81,54264,15.06,73720.8,-4.05,-5.89,-5.81,0,*58
1537675513.07,54265,15.06,73720.5,-4.09,-5.93,-5.85,0,*5A
1537675514.3,54266,15.06,73720.0,-4.09,-5.97,-5.85,0,*5D
1537675515.55,54267,15.06,73718.5,-4.09,-5.93,-5.81,0,*5C
1537675516.81,54268,15.06,73716.8,-4.09,-5.93,-5.85,0,*57
1537675518.07,54269,15.06,73718.5,-4.09,-5.85,-5.85,0,*51
1537675519.33,54270,15.06,73718.5,-4.09,-5.85,-5.81,0,*5D
1537675520.58,54271,15.06,73718.5,-4.09,-5.81,-5.81,0,*58
1537675521.83,54272,15.06,73724.5,-4.09,-5.81,-5.77,0,*52
1537675523.08,54273,15.06,73720.0,-4.05,-5.73,-5.81,0,*5B
1537675524.33,54274,15.06,73726.5,-4.05,-5.77,-5.81,0,*58
1537675525.59,54275,15.06,73722.3,-4.05,-5.81,-5.89,0,*58
1537675526.85,54276,15.06,73726.5,-4.05,-5.81,-5.89,0,*5B
1537675528.08,54277,15.06,73724.8,-4.05,-5.81,-6.01,0,*59
1537675529.35,54278,15.06,73726.3,-4.05,-5.93,-5.93,0,*5D
1537675530.6,54279,15.06,73724.8,-4.05,-5.89,-5.93,0,*57
1537675531.85,54280,15.06,73724.3,-4.03,-5.73,-5.89,0,*59
1537675533.1,54281,15.06,73724.0,-4.05,-5.73,-5.93,0,*55
1537675534.33,54282,15.06,73730.5,-4.05,-5.81,-6.05,0,*57
1537675535.59,54283,15.06,73728.3,-4.05,-5.93,-6.27,0,*55
1537675536.82,54284,15.06,73730.3,-4.05,-5.93,-6.39,0,*5D
1537675538.05,54285,15.06,73726.0,-4.03,-5.89,-6.35,0,*5D
1537675539.26,54286,15.06,73724.5,-4.05,-6.01,-6.51,0,*59
1537675540.46,54287,15.06,73726.8,-4.05,-6.13,-6.69,0,*50
1537675541.67,54288,15.06,73726.5,-4.05,-6.31,-6.73,0,*54
1537675542.87,54289,15.06,73728.5,-4.03,-6.39,-6.77,0,*5F
1537675544.08,54290,15.06,73730.5,-4.05,-6.55,-6.81,0,*52
1537675545.3,54291,15.06,73726.3,-4.05,-6.73,-6.97,0,*50
1537675546.54,54292,15.06,73728.3,-4.05,-6.81,-6.97,0,*5E
1537675547.76,54293,15.06,73730.3,-4.03,-6.89,-6.93,0,*55
1537675549.01,54294,15.06,73728.8,-4.03,-7.01,-7.01,0,*59
1537675550.26,54295,15.06,73730.8,-4.05,-7.05,-6.97,0,*54
1537675551.51,54296,15.06,73726.0,-4.03,-7.05,-6.93,0,*55
1537675552.76,54297,15.06,73730.8,-4.03,-7.05,-6.93,0,*54
1537675554.01,54298,15.06,73726.3,-4.03,-7.05,-6.93,0,*5B
1537675555.24,54299,15.06,73724.5,-4.03,-7.15,-7.01,0,*51
1537675556.46,54300,15.06,73720.3,-4.03,-7.15,-7.01,0,*50
1537675557.71,54301,15.0,73718.3,-4.05,-7.31,-7.05,0,*55
1537675558.96,54302,15.06,73720.8,-4.03,-7.31,-6.93,0,*5E
1537675560.21,54303,15.06,73720.5,-4.05,-7.35,-6.97,0,*59
1537675561.46,54304,15.06,73720.0,-4.05,-7.39,-6.97,0,*52
1537675562.69,54305,15.06,73722.8,-4.05,-7.43,-6.85,0,*5D
1537675563.92,54306,15.06,73724.3,-4.05,-7.53,-6.93,0,*58
1537675565.15,54307,15.06,73724.8,-4.03,-7.61,-6.81,0,*5D
1537675566.4,54308,15.06,73722.3,-4.05,-7.91,-6.97,0,*5C
1537675567.61,54309,15.06,73720.0,-4.03,-7.87,-6.81,0,*5B
1537675568.83,54310,15.06,73718.3,-4.05,-7.91,-6.73,0,*5F
1537675570.06,54311,15.06,73718.5,-4.05,-7.91,-6.51,0,*5E
1537675571.29,54312,15.06,73726.3,-4.05,-7.73,-6.39,0,*5F
1537675572.52,54313,15.06,73718.3,-4.03,-7.69,-6.13,0,*5B
1537675573.74,54314,15.06,73712.5,-4.05,-7.35,-6.05,0,*54
1537675574.97,54315,15.06,73714.8,-4.05,-7.31,-6.01,0,*55
1537675576.19,54316,15.06,73718.3,-4.05,-7.05,-6.01,0,*51
1537675577.45,54317,15.06,73714.8,-4.05,-6.93,-5.93,0,*56
1537675578.69,54318,15.06,73720.0,-4.05,-6.73,-5.89,0,*5C
1537675579.92,54319,15.06,73716.3,-4.05,-6.59,-5.89,0,*55
1537675581.16,54320,15.06,73718.5,-4.05,-6.55,-5.81,0,*5B
1537675582.39,54321,15.06,73720.3,-4.05,-6.51,-5.81,0,*5E
1537675583.61,54322,15.06,73722.3,-4.03,-6.39,-5.73,0,*58
1537675584.84,54323,15.06,73718.5,-4.09,-6.35,-5.77,0,*5B
1537675586.09,54324,15.06,73720.0,-4.09,-6.19,-5.69,0,*5D
1537675587.32,54325,15.06,73722.8,-4.05,-6.01,-5.65,0,*55
1537675588.56,54326,15.06,73720.3,-4.05,-6.01,-5.65,0,*56
1537675589.79,54327,15.06,73720.8,-4.05,-6.01,-5.65,0,*57
1537675591.02,54328,15.06,73724.0,-4.05,-6.01,-5.73,0,*5F
1537675592.24,54329,15.06,73722.5,-4.05,-6.01,-5.73,0,*5E
1537675593.47,54330,15.06,73726.5,-4.09,-6.09,-5.81,0,*5F
1537675594.7,54331,15.0,73722.8,-4.05,-6.13,-5.77,0,*50
1537675595.93,54332,15.0,73722.3,-4.05,-6.13,-5.77,0,*53
1537675597.16,54333,15.06,73724.3,-4.09,-6.09,-5.81,0,*5C
1537675598.41,54334,15.06,73724.8,-4.09,-6.19,-5.77,0,*53
1537675599.66,54335,15.06,73718.8,-4.09,-6.19,-5.77,0,*52
1537675600.88,54336,15.06,73724.8,-4.05,-6.05,-5.73,0,*54
1537675602.14,54337,15.06,73716.3,-4.09,-6.19,-5.69,0,*5F
1537675603.36,54338,15.06,73716.8,-4.09,-6.05,-5.77,0,*52
1537675604.58,54339,15.06,73718.8,-4.09,-6.09,-5.69,0,*50
1537675605.84,54340,15.06,73718.0,-4.05,-5.93,-5.65,0,*5E
1537675607.11,54341,15.06,73718.0,-4.05,-5.93,-5.65,0,*5F
1537675608.36,54342,15.06,73716.8,-4.09,-5.93,-5.69,0,*5C
1537675609.59,54343,15.06,73714.5,-4.09,-5.97,-5.69,0,*59
1537675610.84,54344,15.06,73716.3,-4.09,-5.85,-5.69,0,*5D
1537675612.07,54345,15.06,73714.8,-4.09,-5.81,-5.55,0,*57
1537675613.31,54346,15.06,73718.3,-4.09,-5.77,-5.55,0,*5D
1537675614.54,54347,15.06,73718.5,-4.09,-5.69,-5.55,0,*53
1537675615.76,54348,15.06,73716.3,-4.03,-5.61,-5.47,0,*5D
1537675617.02,54349,15.06,73722.0,-4.05,-5.73,-5.61,0,*5D
1537675618.28,54350,15.06,73724.3,-4.05,-5.77,-5.61,0,*51
1537675619.51,54351,15.06,73724.0,-4.05,-5.65,-5.51,0,*50
1537675620.74,54352,15.06,73724.5,-4.05,-5.65,-5.51,0,*53
1537675621.98,54353,15.06,73720.5,-4.05,-5.65,-5.51,0,*52
1537675623.21,54354,15.06,73730.0,-4.05,-5.65,-5.51,0,*55
1537675624.48,54355,15.0,73726.0,-4.05,-5.65,-5.61,0,*57
1537675625.71,54356,15.06,73730.8,-4.05,-5.65,-5.47,0,*50
1537675626.94,54357,15.06,73730.5,-4.05,-5.61,-5.47,0,*55
1537675628.16,54358,15.06,73730.3,-4.05,-5.61,-5.39,0,*53
1537675629.36,54359,15.06,73730.8,-4.03,-5.47,-5.43,0,*5D
1537675630.57,54360,15.06,73730.5,-4.03,-5.55,-5.35,0,*55
1537675631.78,54361,15.06,73728.8,-4.03,-5.55,-5.35,0,*54
1537675632.98,54362,15.0,73726.8,-4.03,-5.47,-5.35,0,*54
1537675634.18,54363,15.06,73732.8,-4.05,-5.47,-5.35,0,*53
1537675635.39,54364,15.06,73732.5,-4.05,-5.39,-5.35,0,*5D
1537675636.61,54365,15.06,73734.3,-4.03,-5.43,-5.31,0,*53
1537675637.85,54366,15.06,73732.0,-4.03,-5.35,-5.23,0,*52
1537675639.07,54367,15.06,73734.5,-4.03,-5.43,-5.31,0,*51
1537675640.3,54368,15.06,73732.5,-4.03,-5.35,-5.31,0,*5F
1537675641.5,54369,15.06,73734.8,-4.03,-5.43,-5.43,0,*5A
1537675642.69,54370,15.06,73732.5,-4.03,-5.35,-5.43,0,*53
1537675643.92,54371,15.06,73736.3,-4.01,-5.35,-5.35,0,*51
1537675645.12,54372,15.06,73732.0,-4.03,-5.43,-5.43,0,*50
1537675646.32,54373,15.06,73734.3,-4.05,-5.47,-5.47,0,*57
1537675647.52,54374,15.06,73734.5,-4.03,-5.43,-5.43,0,*56
1537675648.72,54375,15.06,73734.0,-4.03,-5.47,-5.43,0,*53
1537675649.92,54376,15.06,73734.0,-4.03,-5.47,-5.43,0,*50
1537675651.12,54377,15.06,73732.8,-4.03,-5.43,-5.43,0,*55
1537675652.34,54378,15.06,73734.3,-4.01,-5.43,-5.35,0,*59
1537675653.56,54379,15.06,73734.3,-4.01,-5.35,-5.35,0,*59
1537675654.79,54380,15.06,73732.3,-4.01,-5.35,-5.35,0,*5F
1537675656.02,54381,15.06,73736.5,-4.01,-5.35,-5.35,0,*5E
1537675657.22,54382,15.06,73736.0,-4.05,-5.47,-5.47,0,*59
1537675658.43,54383,15.06,73732.3,-4.03,-5.55,-5.47,0,*5D
1537675659.64,54384,15.06,73734.8,-4.03,-5.47,-5.55,0,*5A
1537675660.84,54385,15.06,73732.0,-4.03,-5.47,-5.47,0,*58
1537675662.05,54386,15.0,73732.8,-4.03,-5.55,-5.47,0,*58
1537675663.25,54387,15.06,73738.0,-4.03,-5.35,-5.35,0,*5A
1537675664.44,54388,15.06,73738.0,-4.03,-5.35,-5.35,0,*55
1537675665.67,54389,15.06,73732.8,-4.03,-5.35,-5.31,0,*50
1537675666.93,54390,15.06,73736.5,-4.03,-5.23,-5.23,0,*5C
1537675668.2,54391,15.06,73738.3,-4.03,-5.23,-5.23,0,*5D
1537675669.46,54392,15.06,73740.0,-4.03,-5.31,-5.23,0,*5D
1537675670.74,54393,15.06,73738.5,-4.01,-5.31,-5.31,0,*5D
1537675672.02,54394,15.06,73746.3,-4.01,-5.31,-5.31,0,*5A
1537675673.25,54395,15.06,73740.5,-4.01,-5.43,-5.47,0,*5F
1537675674.45,54396,15.06,73738.0,-3.99,-5.43,-5.43,0,*5E
1537675675.67,54397,15.06,73738.3,-4.01,-5.47,-5.47,0,*59
1537675676.91,54398,15.06,73734.8,-4.01,-5.55,-5.47,0,*55
1537675678.11,54399,15.0,73730.5,-4.03,-5.47,-5.47,0,*55
1537675679.35,54400,15.06,73730.8,-4.01,-5.55,-5.55,0,*50
1537675680.58,54401,15.06,73730.5,-4.01,-5.47,-5.47,0,*51
1537675681.82,54402,15.06,73730.3,-4.01,-5.55,-5.55,0,*52
1537675683.03,54403,15.06,73724.3,-4.03,-5.55,-5.55,0,*51
1537675684.24,54404,15.0,73722.3,-4.03,-5.55,-5.55,0,*56
1537675685.48,54405,15.06,73720.0,-4.01,-5.47,-5.55,0,*56
1537675686.71,54406,15.06,73720.8,-4.01,-5.47,-5.47,0,*56
1537675687.94,54407,15.06,73722.8,-4.01,-5.47,-5.47,0,*57
1537675689.17,54408,15.06,73720.8,-4.01,-5.47,-5.47,0,*58
1537675690.39,54409,15.06,73720.0,-4.01,-5.43,-5.47,0,*5D
1537675691.62,54410,15.06,73722.3,-4.01,-5.35,-5.47,0,*54
1537675692.85,54411,15.0,73718.5,-4.01,-5.43,-5.55,0,*57
1537675694.07,54412,15.06,73720.3,-4.01,-5.47,-5.47,0,*53
1537675695.3,54413,15.06,73720.8,-4.01,-5.35,-5.47,0,*57
1537675696.53,54414,15.06,73722.8,-4.01,-5.35,-5.47,0,*50
1537675697.74,54415,15.06,73720.5,-4.03,-5.47,-5.55,0,*55
1537675698.95,54416,15.0,73716.0,-4.03,-5.55,-5.55,0,*55
1537675700.15,54417,15.06,73720.0,-4.03,-5.47,-5.47,0,*54
1537675701.35,54418,15.0,73720.0,-4.03,-5.35,-5.47,0,*5E
1537675702.6,54419,15.06,73722.3,-4.01,-5.31,-5.43,0,*5D
1537675703.84,54420,15.06,73724.0,-4.01,-5.35,-5.55,0,*54
1537675705.04,54421,15.06,73722.8,-4.03,-5.35,-5.55,0,*57
1537675706.25,54422,15.0,73722.8,-3.99,-5.39,-5.43,0,*5B
1537675707.45,54423,15.06,73726.8,-3.99,-5.39,-5.51,0,*59
1537675708.7,54424,15.06,73726.8,-4.01,-5.43,-5.69,0,*5E
1537675709.98,54425,15.06,73724.0,-4.01,-5.61,-5.85,0,*5D
1537675711.26,54426,15.06,73726.5,-4.01,-5.61,-5.85,0,*5E